QPF
0.00 0.00 0.00 0.00 0.00 0.00 0.00 0.00 0.00 0.00 0.00 0.01 0.02 0.01 0.02 0.01 0.00 0.00 0.01 0.01 0.01 0.01 0.02 0.03 0.02 0.01 0.02 0.02 0.01 0.02 0.03 0.04 0.06 0.07 0.08 0.08 0.09 0.10 0.12 0.13 0.15 0.17 0.15 0.13
0.00 0.00 0.00 0.00 0.00 0.00 0.00 0.00 0.00 0.00 0.00 0.00 0.01 0.01 0.01 0.01 0.00 0.00 0.01 0.01 0.01 0.01 0.02 0.03 0.03 0.02 0.02 0.02 0.01 0.02 0.04 0.06 0.09 0.09 0.08 0.07 0.07 0.09 0.09 0.11 0.12 0.13 0.11 0.10
0.00 0.00 0.00 0.00 0.00 0.00 0.00 0.00 0.00 0.00 0.00 0.01 0.01 0.03 0.06 0.02 0.00 0.00 0.00 0.01 0.01 0.02 0.02 0.02 0.02 0.01 0.01 0.02 0.03 0.03 0.04 0.06 0.07 0.08 0.08 0.08 0.08 0.08 0.08 0.08 0.09 0.10 0.09 0.09
0.00 0.00 0.00 0.00 0.00 0.00 0.00 0.00 0.00 0.00 0.00 0.00 0.01 0.04 0.04 0.02 0.00 0.01 0.00 0.00 0.01 0.01 0.01 0.01 0.01 0.01 0.01 0.02 0.03 0.04 0.05 0.06 0.06 0.07 0.07 0.07 0.08 0.08 0.08 0.08 0.08 0.08 0.08 0.08
0.00 0.00 0.00 0.00 0.00 0.00 0.00 0.00 0.00 0.00 0.00 0.00 0.01 0.01 0.01 0.00 0.01 0.01 0.00 0.01 0.01 0.02 0.01 0.01 0.02 0.02 0.02 0.02 0.04 0.04 0.05 0.05 0.06 0.06 0.07 0.07 0.08 0.08 0.09 0.09 0.08 0.07 0.07 0.08
0.00 0.00 0.00 0.00 0.00 0.00 0.00 0.00 0.00 0.00 0.00 0.00 0.01 0.02 0.02 0.01 0.01 0.01 0.00 0.01 0.01 0.01 0.01 0.01 0.01 0.02 0.02 0.02 0.03 0.04 0.06 0.07 0.08 0.07 0.06 0.07 0.09 0.13 0.16 0.16 0.15 0.14 0.12 0.12
0.00 0.00 0.00 0.00 0.00 0.00 0.01 0.01 0.00 0.00 0.00 0.01 0.03 0.03 0.04 0.02 0.02 0.02 0.01 0.00 0.00 0.01 0.01 0.01 0.01 0.02 0.03 0.03 0.03 0.04 0.06 0.07 0.08 0.08 0.07 0.07 0.09 0.10 0.14 0.16 0.17 0.17 0.14 0.14
0.00 0.00 0.01 0.00 0.00 0.01 0.01 0.00 0.00 0.00 0.00 0.01 0.03 0.03 0.03 0.02 0.02 0.01 0.00 0.00 0.00 0.00 0.01 0.01 0.01 0.02 0.02 0.02 0.05 0.07 0.08 0.08 0.10 0.09 0.06 0.06 0.06 0.08 0.12 0.13 0.14 0.15 0.14 0.14
0.01 0.01 0.02 0.00 0.00 0.00 0.00 0.00 0.00 0.00 0.01 0.01 0.02 0.03 0.04 0.04 0.04 0.01 0.00 0.00 0.01 0.01 0.01 0.01 0.02 0.02 0.03 0.03 0.04 0.05 0.06 0.08 0.09 0.10 0.08 0.06 0.04 0.06 0.08 0.11 0.13 0.14 0.13 0.11
0.01 0.01 0.01 0.00 0.00 0.00 0.00 0.00 0.00 0.00 0.01 0.00 0.01 0.02 0.07 0.06 0.02 0.01 0.01 0.01 0.01 0.01 0.01 0.01 0.02 0.02 0.02 0.04 0.05 0.05 0.06 0.05 0.05 0.05 0.05 0.05 0.05 0.06 0.07 0.09 0.10 0.10 0.10 0.10
0.02 0.03 0.03 0.03 0.01 0.01 0.00 0.00 0.00 0.00 0.00 0.00 0.00 0.01 0.02 0.03 0.01 0.02 0.02 0.01 0.02 0.02 0.02 0.01 0.02 0.03 0.03 0.03 0.03 0.05 0.05 0.05 0.05 0.04 0.04 0.04 0.05 0.07 0.08 0.09 0.10 0.10 0.10 0.09
0.05 0.04 0.04 0.05 0.03 0.01 0.01 0.01 0.00 0.00 0.00 0.00 0.00 0.01 0.02 0.02 0.02 0.02 0.01 0.01 0.01 0.01 0.02 0.02 0.03 0.04 0.04 0.04 0.04 0.04 0.04 0.04 0.05 0.05 0.05 0.05 0.06 0.09 0.12 0.11 0.12 0.12 0.11 0.10
0.04 0.02 0.03 0.03 0.02 0.02 0.04 0.02 0.00 0.00 0.01 0.01 0.02 0.02 0.02 0.03 0.04 0.02 0.01 0.00 0.00 0.01 0.02 0.03 0.05 0.05 0.05 0.04 0.04 0.05 0.04 0.04 0.04 0.04 0.05 0.05 0.06 0.07 0.09 0.09 0.09 0.08 0.08 0.07
0.04 0.03 0.02 0.03 0.01 0.01 0.02 0.02 0.00 0.00 0.00 0.00 0.01 0.01 0.01 0.02 0.02 0.01 0.00 0.00 0.00 0.01 0.02 0.05 0.06 0.05 0.06 0.05 0.03 0.03 0.03 0.04 0.04 0.04 0.05 0.05 0.05 0.05 0.05 0.05 0.04 0.04 0.05 0.05
0.03 0.03 0.03 0.02 0.00 0.00 0.00 0.00 0.00 0.00 0.00 0.01 0.01 0.01 0.00 0.00 0.01 0.01 0.00 0.00 0.01 0.02 0.03 0.06 0.08 0.07 0.05 0.06 0.05 0.04 0.03 0.03 0.03 0.04 0.04 0.04 0.04 0.05 0.04 0.04 0.03 0.04 0.04 0.05
0.02 0.01 0.01 0.01 0.01 0.00 0.00 0.00 0.00 0.01 0.01 0.01 0.01 0.01 0.01 0.00 0.00 0.01 0.01 0.01 0.02 0.02 0.02 0.04 0.05 0.07 0.07 0.07 0.06 0.05 0.05 0.06 0.05 0.04 0.04 0.03 0.03 0.04 0.05 0.05 0.05 0.05 0.05 0.05
0.02 0.02 0.02 0.02 0.01 0.01 0.01 0.01 0.01 0.01 0.01 0.01 0.01 0.01 0.01 0.01 0.01 0.02 0.02 0.02 0.03 0.03 0.02 0.03 0.03 0.05 0.05 0.06 0.06 0.06 0.06 0.06 0.06 0.04 0.04 0.04 0.04 0.04 0.06 0.06 0.07 0.07 0.07 0.06
0.02 0.02 0.02 0.02 0.02 0.01 0.01 0.01 0.01 0.01 0.01 0.01 0.00 0.01 0.01 0.01 0.02 0.02 0.02 0.03 0.02 0.02 0.03 0.03 0.03 0.03 0.04 0.05 0.05 0.05 0.06 0.07 0.07 0.08 0.08 0.07 0.07 0.07 0.08 0.08 0.09 0.08 0.08 0.07
0.02 0.02 0.02 0.02 0.02 0.01 0.02 0.02 0.02 0.02 0.01 0.01 0.01 0.01 0.01 0.02 0.02 0.02 0.02 0.03 0.03 0.03 0.03 0.03 0.03 0.02 0.03 0.04 0.05 0.04 0.05 0.06 0.09 0.12 0.13 0.14 0.12 0.10 0.10 0.09 0.08 0.07 0.06 0.04
0.02 0.03 0.03 0.02 0.02 0.02 0.02 0.01 0.02 0.01 0.01 0.02 0.01 0.01 0.02 0.02 0.02 0.02 0.02 0.03 0.03 0.03 0.02 0.02 0.02 0.02 0.02 0.02 0.04 0.04 0.05 0.06 0.07 0.09 0.10 0.11 0.11 0.11 0.09 0.08 0.06 0.05 0.04 0.03
0.05 0.05 0.03 0.03 0.03 0.02 0.02 0.02 0.02 0.02 0.03 0.04 0.04 0.02 0.03 0.03 0.04 0.04 0.04 0.04 0.04 0.03 0.03 0.03 0.02 0.02 0.02 0.02 0.03 0.03 0.04 0.05 0.07 0.08 0.08 0.07 0.06 0.05 0.05 0.04 0.03 0.03 0.02 0.02
0.06 0.05 0.04 0.03 0.04 0.04 0.04 0.04 0.02 0.02 0.03 0.05 0.06 0.05 0.04 0.04 0.04 0.05 0.05 0.05 0.05 0.05 0.04 0.03 0.03 0.03 0.02 0.02 0.01 0.02 0.02 0.03 0.04 0.04 0.04 0.04 0.03 0.03 0.02 0.02 0.01 0.01 0.01 0.01
0.06 0.05 0.04 0.03 0.04 0.05 0.05 0.03 0.03 0.02 0.03 0.05 0.06 0.06 0.05 0.05 0.04 0.04 0.04 0.04 0.03 0.03 0.04 0.04 0.03 0.03 0.02 0.01 0.01 0.01 0.01 0.01 0.01 0.01 0.01 0.01 0.01 0.01 0.01 0.01 0.01 0.01 0.00 0.00
0.08 0.07 0.06 0.05 0.03 0.04 0.04 0.04 0.03 0.03 0.03 0.04 0.05 0.05 0.04 0.03 0.04 0.03 0.03 0.03 0.02 0.02 0.02 0.02 0.01 0.01 0.01 0.01 0.01 0.00 0.00 0.00 0.00 0.00 0.00 0.00 0.00 0.00 0.00 0.00 0.00 0.00 0.00 0.00
0.09 0.09 0.09 0.06 0.06 0.06 0.05 0.05 0.05 0.05 0.04 0.03 0.03 0.03 0.02 0.02 0.02 0.02 0.01 0.01 0.01 0.02 0.01 0.01 0.01 0.01 0.00 0.00 0.00 0.00 0.00 0.00 0.00 0.00 0.00 0.00 0.00 0.00 0.00 0.00 0.00 0.00 0.00 0.00
0.08 0.08 0.07 0.07 0.07 0.06 0.05 0.05 0.05 0.04 0.03 0.03 0.03 0.02 0.02 0.01 0.01 0.01 0.01 0.01 0.01 0.01 0.01 0.01 0.01 0.01 0.00 0.01 0.01 0.00 0.00 0.00 0.00 0.00 0.00 0.00 0.00 0.00 0.00 0.00 0.00 0.00 0.00 0.00
0.07 0.06 0.06 0.06 0.06 0.05 0.05 0.04 0.04 0.03 0.03 0.03 0.02 0.02 0.02 0.02 0.01 0.01 0.01 0.01 0.01 0.01 0.01 0.01 0.01 0.01 0.01 0.01 0.01 0.01 0.00 0.00 0.00 0.00 0.00 0.00 0.00 0.00 0.00 0.00 0.00 0.00 0.00 0.00
MSLP
1005.84 1006.04 1006.19 1006.30 1006.38 1006.42 1006.42 1006.38 1006.29 1006.16 1006.00 1005.81 1005.64 1005.50 1005.42 1005.41 1005.49 1005.65 1005.88 1006.17 1006.49 1006.83 1007.18 1007.51 1007.84 1008.15 1008.45 1008.75 1009.05 1009.34 1009.63 1009.92 1010.21 1010.50 1010.80 1011.10 1011.42 1011.75 1012.11 1012.48 1012.87 1013.28 1013.73 1014.20
1006.25 1006.36 1006.37 1006.30 1006.17 1006.00 1005.82 1005.64 1005.49 1005.37 1005.29 1005.26 1005.26 1005.31 1005.40 1005.52 1005.68 1005.87 1006.07 1006.30 1006.54 1006.80 1007.06 1007.34 1007.64 1007.94 1008.26 1008.58 1008.91 1009.23 1009.54 1009.85 1010.15 1010.46 1010.77 1011.09 1011.44 1011.81 1012.20 1012.61 1013.04 1013.49 1013.97 1014.48
1006.65 1006.69 1006.59 1006.36 1006.05 1005.69 1005.34 1005.04 1004.81 1004.67 1004.63 1004.69 1004.83 1005.02 1005.25 1005.50 1005.73 1005.96 1006.17 1006.36 1006.56 1006.76 1006.97 1007.22 1007.50 1007.81 1008.15 1008.50 1008.86 1009.22 1009.57 1009.91 1010.24 1010.57 1010.91 1011.27 1011.65 1012.05 1012.48 1012.93 1013.40 1013.89 1014.40 1014.94
1006.96 1006.95 1006.77 1006.43 1005.98 1005.48 1004.99 1004.57 1004.25 1004.08 1004.05 1004.16 1004.38 1004.69 1005.03 1005.37 1005.69 1005.97 1006.21 1006.41 1006.59 1006.77 1006.97 1007.20 1007.48 1007.80 1008.16 1008.55 1008.95 1009.35 1009.74 1010.12 1010.48 1010.85 1011.22 1011.62 1012.03 1012.48 1012.94 1013.43 1013.94 1014.47 1015.01 1015.57
1007.12 1007.09 1006.85 1006.45 1005.92 1005.33 1004.75 1004.23 1003.85 1003.63 1003.59 1003.73 1004.01 1004.38 1004.81 1005.24 1005.64 1005.99 1006.28 1006.51 1006.70 1006.89 1007.09 1007.33 1007.61 1007.95 1008.33 1008.74 1009.17 1009.60 1010.03 1010.44 1010.84 1011.25 1011.66 1012.09 1012.55 1013.03 1013.54 1014.08 1014.62 1015.18 1015.75 1016.33
1007.11 1007.06 1006.83 1006.41 1005.86 1005.23 1004.60 1004.04 1003.62 1003.37 1003.32 1003.47 1003.77 1004.20 1004.70 1005.20 1005.68 1006.10 1006.45 1006.72 1006.95 1007.16 1007.37 1007.61 1007.90 1008.23 1008.62 1009.04 1009.48 1009.93 1010.38 1010.82 1011.26 1011.70 1012.16 1012.63 1013.13 1013.66 1014.22 1014.80 1015.39 1015.98 1016.58 1017.18
1006.94 1006.90 1006.68 1006.30 1005.78 1005.17 1004.56 1004.01 1003.59 1003.34 1003.29 1003.44 1003.78 1004.24 1004.78 1005.35 1005.89 1006.37 1006.77 1007.10 1007.36 1007.58 1007.80 1008.03 1008.30 1008.62 1008.99 1009.39 1009.83 1010.28 1010.74 1011.21 1011.68 1012.16 1012.65 1013.17 1013.72 1014.31 1014.92 1015.55 1016.18 1016.82 1017.45 1018.08
1006.65 1006.63 1006.47 1006.15 1005.71 1005.18 1004.64 1004.15 1003.77 1003.56 1003.53 1003.70 1004.06 1004.55 1005.12 1005.72 1006.31 1006.83 1007.28 1007.63 1007.91 1008.14 1008.34 1008.55 1008.78 1009.06 1009.38 1009.75 1010.16 1010.60 1011.06 1011.54 1012.04 1012.55 1013.10 1013.67 1014.28 1014.92 1015.59 1016.28 1016.97 1017.66 1018.33 1018.98
1006.30 1006.32 1006.22 1006.01 1005.68 1005.28 1004.85 1004.47 1004.17 1004.03 1004.05 1004.25 1004.62 1005.13 1005.72 1006.34 1006.94 1007.48 1007.94 1008.31 1008.58 1008.79 1008.96 1009.12 1009.29 1009.50 1009.76 1010.07 1010.44 1010.85 1011.31 1011.80 1012.33 1012.89 1013.49 1014.12 1014.80 1015.50 1016.23 1016.98 1017.72 1018.46 1019.18 1019.86
1005.95 1006.01 1006.00 1005.90 1005.72 1005.47 1005.20 1004.95 1004.77 1004.72 1004.80 1005.04 1005.43 1005.94 1006.53 1007.14 1007.74 1008.28 1008.72 1009.07 1009.32 1009.49 1009.60 1009.70 1009.80 1009.94 1010.12 1010.38 1010.70 1011.08 1011.53 1012.04 1012.59 1013.20 1013.85 1014.55 1015.28 1016.05 1016.84 1017.64 1018.44 1019.22 1019.97 1020.68
1005.63 1005.74 1005.82 1005.86 1005.83 1005.76 1005.66 1005.57 1005.52 1005.57 1005.72 1006.00 1006.41 1006.91 1007.48 1008.07 1008.64 1009.14 1009.56 1009.87 1010.08 1010.20 1010.26 1010.29 1010.32 1010.39 1010.51 1010.70 1010.98 1011.34 1011.78 1012.30 1012.89 1013.54 1014.25 1015.00 1015.79 1016.61 1017.45 1018.29 1019.13 1019.93 1020.70 1021.42
1005.36 1005.53 1005.71 1005.88 1006.02 1006.11 1006.19 1006.26 1006.35 1006.50 1006.73 1007.05 1007.46 1007.95 1008.48 1009.03 1009.56 1010.02 1010.39 1010.66 1010.83 1010.91 1010.93 1010.91 1010.89 1010.90 1010.97 1011.12 1011.37 1011.71 1012.15 1012.68 1013.30 1013.99 1014.73 1015.53 1016.37 1017.22 1018.09 1018.95 1019.79 1020.60 1021.36 1022.06
1005.12 1005.36 1005.64 1005.94 1006.23 1006.49 1006.73 1006.96 1007.18 1007.43 1007.73 1008.08 1008.50 1008.96 1009.46 1009.97 1010.44 1010.86 1011.19 1011.43 1011.58 1011.64 1011.63 1011.59 1011.55 1011.53 1011.57 1011.70 1011.93 1012.26 1012.70 1013.24 1013.87 1014.58 1015.35 1016.17 1017.02 1017.89 1018.75 1019.60 1020.43 1021.21 1021.93 1022.59
1004.90 1005.20 1005.58 1006.00 1006.43 1006.85 1007.24 1007.60 1007.95 1008.30 1008.65 1009.04 1009.45 1009.90 1010.36 1010.82 1011.25 1011.64 1011.95 1012.18 1012.32 1012.38 1012.38 1012.35 1012.31 1012.30 1012.34 1012.46 1012.68 1013.01 1013.44 1013.98 1014.61 1015.32 1016.09 1016.90 1017.74 1018.58 1019.42 1020.23 1021.01 1021.73 1022.39 1022.98
1004.67 1005.04 1005.51 1006.04 1006.59 1007.14 1007.67 1008.16 1008.62 1009.05 1009.47 1009.88 1010.30 1010.73 1011.16 1011.59 1011.99 1012.35 1012.66 1012.89 1013.05 1013.14 1013.18 1013.18 1013.18 1013.19 1013.25 1013.38 1013.60 1013.91 1014.33 1014.85 1015.46 1016.14 1016.88 1017.65 1018.45 1019.25 1020.03 1020.78 1021.48 1022.13 1022.72 1023.23
1004.43 1004.86 1005.40 1006.03 1006.69 1007.36 1008.01 1008.61 1009.17 1009.68 1010.15 1010.60 1011.03 1011.45 1011.87 1012.27 1012.65 1013.01 1013.32 1013.57 1013.77 1013.90 1013.99 1014.05 1014.09 1014.14 1014.23 1014.37 1014.58 1014.88 1015.27 1015.75 1016.31 1016.93 1017.61 1018.33 1019.06 1019.79 1020.50 1021.17 1021.80 1022.37 1022.87 1023.31
1004.19 1004.67 1005.28 1005.98 1006.73 1007.50 1008.25 1008.95 1009.60 1010.19 1010.72 1011.21 1011.65 1012.08 1012.48 1012.87 1013.25 1013.60 1013.92 1014.20 1014.43 1014.62 1014.76 1014.88 1014.97 1015.06 1015.17 1015.31 1015.52 1015.78 1016.13 1016.54 1017.03 1017.59 1018.19 1018.82 1019.47 1020.12 1020.75 1021.35 1021.90 1022.40 1022.83 1023.20
1004.02 1004.53 1005.18 1005.94 1006.76 1007.61 1008.44 1009.23 1009.95 1010.61 1011.20 1011.72 1012.18 1012.61 1013.01 1013.39 1013.76 1014.11 1014.43 1014.73 1015.00 1015.23 1015.42 1015.57 1015.71 1015.83 1015.95 1016.09 1016.27 1016.50 1016.78 1017.13 1017.53 1018.00 1018.51 1019.06 1019.62 1020.19 1020.75 1021.27 1021.76 1022.20 1022.58 1022.91
1003.98 1004.51 1005.18 1005.97 1006.84 1007.73 1008.62 1009.48 1010.26 1010.97 1011.60 1012.15 1012.63 1013.06 1013.45 1013.82 1014.17 1014.50 1014.82 1015.13 1015.41 1015.66 1015.88 1016.06 1016.22 1016.36 1016.48 1016.61 1016.76 1016.93 1017.15 1017.42 1017.74 1018.12 1018.54 1019.00 1019.48 1019.98 1020.47 1020.94 1021.39 1021.79 1022.14 1022.45
1004.17 1004.70 1005.37 1006.16 1007.04 1007.95 1008.87 1009.75 1010.57 1011.31 1011.96 1012.52 1013.00 1013.42 1013.79 1014.13 1014.45 1014.76 1015.06 1015.35 1015.62 1015.88 1016.11 1016.30 1016.47 1016.61 1016.73 1016.84 1016.95 1017.07 1017.23 1017.43 1017.67 1017.96 1018.30 1018.69 1019.11 1019.54 1019.98 1020.42 1020.83 1021.21 1021.55 1021.85
1004.67 1005.17 1005.82 1006.58 1007.43 1008.33 1009.23 1010.10 1010.91 1011.64 1012.28 1012.83 1013.29 1013.68 1014.02 1014.32 1014.59 1014.86 1015.12 1015.38 1015.64 1015.88 1016.10 1016.30 1016.46 1016.60 1016.71 1016.80 1016.88 1016.97 1017.07 1017.21 1017.39 1017.61 1017.89 1018.21 1018.57 1018.96 1019.37 1019.77 1020.17 1020.54 1020.89 1021.19
1005.51 1005.98 1006.57 1007.27 1008.06 1008.89 1009.73 1010.55 1011.31 1011.99 1012.59 1013.09 1013.51 1013.84 1014.13 1014.37 1014.59 1014.80 1015.02 1015.24 1015.47 1015.69 1015.90 1016.09 1016.26 1016.40 1016.50 1016.58 1016.64 1016.70 1016.77 1016.87 1016.99 1017.17 1017.39 1017.67 1017.98 1018.34 1018.72 1019.11 1019.49 1019.86 1020.21 1020.52
1006.70 1007.11 1007.63 1008.24 1008.92 1009.65 1010.38 1011.10 1011.77 1012.37 1012.88 1013.31 1013.65 1013.91 1014.13 1014.30 1014.47 1014.62 1014.79 1014.98 1015.17 1015.38 1015.58 1015.77 1015.94 1016.08 1016.19 1016.27 1016.33 1016.38 1016.42 1016.49 1016.58 1016.72 1016.91 1017.14 1017.43 1017.75 1018.11 1018.48 1018.86 1019.22 1019.57 1019.89
1008.16 1008.50 1008.92 1009.41 1009.97 1010.56 1011.15 1011.74 1012.27 1012.75 1013.15 1013.48 1013.72 1013.91 1014.04 1014.15 1014.25 1014.36 1014.49 1014.64 1014.82 1015.01 1015.21 1015.41 1015.59 1015.74 1015.86 1015.95 1016.02 1016.06 1016.10 1016.15 1016.22 1016.33 1016.48 1016.68 1016.94 1017.24 1017.58 1017.93 1018.30 1018.66 1019.00 1019.31
1009.76 1010.02 1010.33 1010.70 1011.10 1011.54 1011.98 1012.40 1012.79 1013.12 1013.40 1013.61 1013.76 1013.85 1013.92 1013.96 1014.01 1014.08 1014.18 1014.31 1014.47 1014.66 1014.87 1015.07 1015.27 1015.44 1015.57 1015.67 1015.74 1015.79 1015.82 1015.85 1015.90 1015.98 1016.11 1016.29 1016.52 1016.80 1017.11 1017.45 1017.81 1018.16 1018.49 1018.80
1011.32 1011.50 1011.71 1011.95 1012.21 1012.49 1012.76 1013.03 1013.26 1013.46 1013.61 1013.71 1013.76 1013.78 1013.78 1013.77 1013.78 1013.82 1013.90 1014.02 1014.18 1014.37 1014.58 1014.80 1015.00 1015.18 1015.32 1015.43 1015.50 1015.53 1015.55 1015.57 1015.60 1015.66 1015.76 1015.91 1016.11 1016.37 1016.67 1016.99 1017.34 1017.69 1018.02 1018.33
1012.66 1012.78 1012.89 1013.01 1013.14 1013.28 1013.41 1013.54 1013.64 1013.72 1013.76 1013.77 1013.74 1013.70 1013.66 1013.62 1013.61 1013.63 1013.70 1013.81 1013.97 1014.15 1014.36 1014.57 1014.77 1014.95 1015.09 1015.18 1015.23 1015.25 1015.25 1015.24 1015.24 1015.27 1015.34 1015.47 1015.65 1015.89 1016.18 1016.50 1016.85 1017.20 1017.54 1017.85
Thickness
5790 5804 5807 5805 5805 5808 5803 5801 5794 5798 5801 5805 5809 5810 5809 5810 5809 5806 5800 5796 5791 5785 5782 5779 5776 5773 5770 5766 5764 5761 5756 5751 5748 5745 5743 5740 5738 5736 5734 5732 5730 5727 5725 5723
5775 5793 5800 5799 5805 5807 5807 5808 5805 5804 5802 5816 5816 5813 5807 5806 5804 5799 5795 5792 5789 5784 5779 5774 5770 5768 5765 5762 5759 5756 5751 5747 5744 5741 5738 5735 5733 5731 5728 5726 5724 5721 5718 5715
5755 5780 5785 5779 5800 5805 5806 5812 5809 5799 5804 5811 5802 5800 5799 5799 5799 5796 5793 5789 5784 5779 5775 5771 5767 5764 5760 5757 5755 5751 5747 5743 5739 5736 5732 5729 5727 5724 5721 5719 5717 5713 5710 5707
5749 5755 5742 5783 5818 5817 5809 5810 5815 5810 5809 5806 5800 5797 5796 5799 5797 5792 5789 5784 5780 5776 5772 5768 5765 5761 5757 5754 5749 5745 5741 5738 5734 5730 5726 5723 5720 5717 5714 5712 5708 5705 5701 5698
5741 5740 5751 5781 5803 5807 5797 5794 5809 5805 5801 5799 5797 5790 5787 5793 5793 5787 5784 5780 5776 5773 5769 5764 5760 5756 5752 5747 5743 5739 5735 5731 5728 5724 5720 5716 5712 5710 5707 5704 5700 5696 5692 5688
5731 5727 5734 5769 5797 5809 5796 5776 5798 5800 5792 5789 5786 5770 5768 5780 5781 5778 5775 5772 5769 5766 5762 5756 5753 5751 5745 5740 5735 5731 5728 5725 5722 5717 5713 5709 5705 5703 5700 5696 5692 5687 5682 5679
5720 5722 5743 5775 5789 5788 5756 5756 5782 5788 5785 5781 5772 5769 5769 5771 5768 5766 5763 5762 5760 5756 5751 5747 5746 5742 5736 5731 5727 5725 5722 5718 5714 5709 5706 5702 5698 5695 5691 5686 5682 5677 5672 5668
5717 5714 5727 5765 5771 5757 5751 5766 5772 5771 5770 5766 5762 5761 5760 5758 5755 5753 5752 5750 5748 5744 5740 5738 5737 5733 5727 5723 5721 5718 5715 5710 5706 5702 5699 5694 5690 5686 5682 5677 5671 5666 5662 5656
5722 5723 5737 5749 5750 5754 5760 5757 5760 5760 5759 5757 5752 5749 5747 5744 5742 5741 5741 5738 5737 5733 5729 5727 5725 5723 5717 5714 5713 5710 5705 5701 5696 5692 5688 5684 5680 5676 5672 5668 5663 5658 5653 5647
5715 5719 5728 5736 5741 5744 5748 5748 5751 5751 5750 5748 5741 5739 5737 5733 5731 5730 5729 5727 5726 5722 5717 5714 5713 5711 5708 5706 5704 5701 5696 5691 5686 5681 5676 5672 5669 5666 5662 5658 5654 5650 5645 5639
5704 5710 5715 5719 5724 5727 5732 5737 5738 5739 5739 5736 5731 5728 5725 5721 5719 5718 5716 5714 5712 5708 5704 5701 5701 5699 5698 5696 5694 5690 5685 5681 5676 5670 5666 5659 5654 5650 5649 5645 5644 5642 5637 5632
5687 5698 5701 5703 5711 5717 5718 5720 5722 5722 5722 5723 5721 5715 5713 5709 5707 5705 5703 5700 5697 5694 5692 5689 5688 5686 5685 5685 5683 5679 5674 5670 5665 5660 5654 5648 5642 5634 5629 5629 5628 5627 5624 5619
5689 5695 5697 5700 5704 5706 5705 5706 5709 5708 5707 5706 5704 5702 5699 5695 5691 5689 5687 5685 5682 5680 5679 5677 5675 5673 5673 5672 5671 5668 5664 5660 5655 5650 5644 5638 5633 5628 5620 5613 5611 5610 5608 5605
5684 5685 5685 5687 5690 5693 5694 5695 5696 5696 5694 5692 5690 5688 5684 5680 5676 5674 5672 5670 5669 5667 5666 5664 5663 5661 5660 5660 5658 5656 5652 5648 5644 5640 5635 5630 5625 5620 5614 5608 5602 5594 5591 5589
5674 5676 5676 5680 5682 5683 5683 5683 5682 5679 5677 5676 5674 5671 5668 5665 5662 5659 5658 5657 5655 5654 5652 5651 5649 5648 5648 5647 5646 5643 5640 5637 5633 5628 5625 5620 5615 5610 5605 5599 5593 5587 5581 5576
5664 5667 5668 5668 5669 5670 5671 5670 5667 5665 5663 5660 5658 5656 5654 5652 5648 5646 5644 5643 5642 5640 5639 5638 5636 5635 5635 5634 5633 5631 5628 5625 5622 5619 5615 5610 5606 5602 5596 5590 5585 5579 5575 5570
5652 5652 5655 5656 5657 5658 5658 5657 5655 5653 5650 5647 5644 5642 5640 5637 5634 5632 5630 5629 5628 5627 5626 5625 5624 5623 5623 5622 5621 5619 5616 5613 5611 5608 5605 5602 5599 5595 5589 5584 5578 5573 5568 5563
5649 5650 5652 5651 5649 5647 5646 5645 5643 5641 5638 5635 5632 5630 5627 5625 5622 5619 5618 5617 5615 5614 5613 5613 5613 5612 5611 5611 5610 5608 5605 5602 5600 5598 5595 5593 5590 5587 5582 5578 5573 5567 5562 5556
5643 5643 5644 5643 5642 5639 5636 5633 5630 5628 5626 5623 5620 5618 5615 5613 5611 5609 5608 5607 5605 5603 5602 5602 5601 5602 5601 5601 5600 5598 5596 5595 5592 5590 5587 5583 5582 5579 5575 5570 5565 5561 5556 5552
5635 5635 5635 5634 5632 5629 5625 5622 5619 5616 5614 5612 5609 5607 5604 5602 5601 5600 5599 5598 5597 5596 5594 5593 5593 5593 5592 5591 5591 5591 5589 5587 5584 5581 5578 5576 5574 5571 5568 5564 5560 5556 5552 5547
5625 5625 5624 5622 5620 5617 5615 5612 5608 5605 5604 5602 5600 5598 5596 5594 5594 5593 5592 5590 5588 5588 5587 5585 5586 5586 5585 5584 5582 5584 5582 5580 5578 5575 5572 5570 5566 5564 5561 5558 5554 5550 5547 5542
5613 5613 5612 5610 5608 5605 5603 5601 5599 5597 5595 5593 5592 5591 5589 5588 5588 5587 5587 5585 5583 5581 5582 5582 5581 5580 5579 5578 5579 5579 5577 5575 5573 5570 5567 5564 5561 5558 5555 5552 5549 5545 5542 5537
5602 5602 5601 5600 5598 5596 5594 5592 5591 5590 5588 5587 5586 5585 5585 5585 5585 5584 5580 5579 5579 5576 5579 5579 5576 5574 5573 5573 5575 5575 5573 5571 5568 5565 5563 5560 5557 5554 5550 5547 5544 5541 5537 5533
5592 5592 5592 5592 5591 5589 5586 5584 5584 5583 5583 5583 5582 5582 5582 5581 5581 5581 5578 5574 5574 5573 5574 5570 5569 5569 5568 5570 5571 5571 5569 5566 5564 5561 5559 5556 5554 5550 5547 5543 5540 5537 5532 5528
5585 5585 5585 5585 5583 5582 5580 5579 5579 5579 5579 5579 5578 5578 5579 5579 5578 5577 5574 5572 5569 5568 5567 5564 5564 5563 5565 5567 5567 5566 5564 5562 5560 5558 5555 5553 5550 5547 5543 5539 5536 5532 5528 5525
5580 5580 5580 5580 5579 5578 5578 5577 5576 5576 5576 5575 5574 5574 5575 5575 5574 5572 5570 5568 5567 5564 5564 5562 5560 5559 5561 5562 5561 5560 5559 5556 5554 5552 5550 5548 5544 5541 5538 5535 5531 5527 5524 5520
5575 5575 5575 5575 5575 5576 5576 5576 5574 5573 5573 5573 5572 5571 5571 5570 5569 5568 5567 5565 5564 5562 5561 5560 5559 5558 5558 5557 5557 5556 5554 5552 5550 5548 5545 5541 5538 5535 5532 5528 5525 5522 5518 5515